Home > Weather > Faro > Past weeks

Flag for Portugal Past Weather in Faro, Portugal — Yesterday and Last 2 Weeks

Now
73 °F

Clear.


Feels Like: 77 °F
Forecast: 71 / 86 °F
Wind: 7 mph from North

Location: Faro / Aeroporto

Current Time: Jul 2, 2016 at 3:03:11 AM

Latest Report: Jul 2, 2016 at 2:30 AM


Visibility: 10 mi

Pressure: 30.01 "Hg

Humidity: 57%

Dew Point: 57 °F

Location of FaroLocation

Past Weather in Faro — Graph

°F

Faro Temperature Yesterday

Maximum temperature yesterday: 82 °F (at 8:00 PM)
Minimum temperature yesterday: 64 °F (at 7:00 AM)
Average temperature yesterday: 73 °F

High & Low Weather Summary for the Past Weeks

 TemperatureHumidityPressure
High90 °F (Jun 30, 7:00 PM)94% (Jun 24, 2:00 AM)30.24 "Hg (Jun 24, 2:00 AM)
Low59 °F (Jun 17, 5:30 AM)25% (Jun 18, 8:00 PM)29.89 "Hg (Jun 25, 7:30 PM)
Average74 °F62%30.03 "Hg
* Reported Jun 17 2:00 AM — Jul 2 2:00 AM, Faro, Weather by CustomWeather, © 2016

Note: Actual official high and low records may vary slightly from our data, if they occured in-between our weather recording intervals... More about our weather records

Advertising

Faro Weather History for the Previous 24 Hours

Scroll right to see more
 ConditionsComfort  
Time TempWeatherWind HumidityBarometerVisibility
2:00 AM
Sat, Jul 2
73 °FClear.9 mph57%30.01 "Hg10 mi
1:30 AM73 °FClear.9 mph61%30.01 "Hg10 mi
1:00 AM73 °FClear.9 mph61%30.04 "Hg10 mi
12:30 AM75 °FClear.8 mph57%30.04 "Hg10 mi
12:00 AM75 °FClear.7 mph57%30.04 "Hg10 mi
11:30 PM
Fri, Jul 1
75 °FPassing clouds.5 mph57%30.04 "HgN/A
11:00 PM77 °FClear.8 mph57%30.04 "Hg10 mi
10:30 PM77 °FClear.10 mph57%30.04 "Hg10 mi
10:00 PM79 °FClear.12 mph54%30.01 "Hg10 mi
9:30 PM79 °FSunny.6 mph61%30.01 "Hg10 mi
9:00 PM81 °FPassing clouds.6 mph58%30.01 "HgN/A
8:30 PM82 °FPassing clouds.7 mph55%30.01 "HgN/A
8:00 PM82 °FPassing clouds.13 mph51%29.98 "HgN/A
7:30 PM79 °FSunny.13 mph65%29.98 "Hg10 mi
7:00 PM79 °FPassing clouds.9 mph61%29.98 "HgN/A
6:30 PM77 °FPassing clouds.10 mph65%30.01 "HgN/A
6:00 PM77 °FSunny.7 mph65%30.01 "Hg10 mi
5:30 PM77 °FSunny.7 mph65%30.01 "Hg10 mi
5:00 PM77 °FSunny.8 mph65%30.04 "Hg10 mi
4:30 PM75 °FSunny.8 mph69%30.04 "Hg10 mi
4:00 PM75 °FSunny.9 mph69%30.04 "Hg10 mi
3:30 PM75 °FSunny.9 mph69%30.04 "Hg10 mi
3:00 PM73 °FSunny.9 mph69%30.04 "Hg10 mi
2:30 PM73 °FSunny.9 mph69%30.07 "Hg10 mi
2:00 PM72 °FPassing clouds.8 mph73%30.07 "HgN/A
1:30 PM72 °FSunny.9 mph73%30.07 "Hg10 mi
1:00 PM73 °FPassing clouds.10 mph65%30.07 "HgN/A
12:30 PM73 °FSunny.9 mph65%30.07 "Hg10 mi
12:00 PM73 °FSunny.12 mph65%30.07 "Hg10 mi
11:30 AM73 °FSunny.10 mph65%30.07 "Hg10 mi
11:00 AM73 °FSunny.9 mph61%30.07 "Hg10 mi
10:30 AM73 °FPassing clouds.8 mph57%30.07 "HgN/A
10:00 AM75 °FPassing clouds.5 mph57%30.07 "HgN/A
9:30 AM75 °FPassing clouds.6 mph57%30.07 "HgN/A
9:00 AM73 °FPassing clouds.6 mph57%30.07 "HgN/A
8:30 AM72 °FPassing clouds.7 mph57%30.07 "HgN/A
8:00 AM68 °FSunny.8 mph69%30.04 "Hg10 mi
7:30 AM64 °FSunny.9 mph73%30.04 "Hg10 mi
7:00 AM64 °FClear.10 mph73%30.04 "Hg10 mi
6:30 AM66 °FClear.8 mph68%30.04 "Hg10 mi
6:00 AM66 °FClear.9 mph68%30.04 "Hg10 mi
5:30 AM66 °FClear.9 mph73%30.04 "Hg10 mi
5:00 AM68 °FClear.9 mph69%30.01 "Hg10 mi
4:30 AM68 °FClear.7 mph64%30.01 "Hg10 mi
4:00 AM68 °FClear.8 mph64%30.01 "Hg10 mi
3:30 AM70 °FClear.7 mph60%30.01 "Hg10 mi
3:00 AM70 °FClear.7 mph60%30.01 "Hg10 mi
Weather by CustomWeather, © 2016

See weather overviewHow to use our weather pages